アトラス彗星

C/2024 A1 ( ATLAS )

English version
Home page
Updated on May 2, 2025

---------------------------------------------------------------------

・ プロフィール

発見日 2024年1月3日
発見光度 18.8等
発見者 Asteroid Terrestrial-Impact Last Alert System (ATLAS) search program

・ 写真集

・ 軌道要素

Epoch 2025 May 5.0 TT = JDT 2460800.5
T 2025 June 13.71797 TT                                 Pike
q   3.8752859            (2000.0)            P               Q
z  -0.0005588      Peri.  353.31302     -0.38263706     +0.02761392
 +/-0.0000011      Node   112.13675     +0.88712102     -0.26823174
e   1.0021653      Incl.   94.45698     +0.25807977     +0.96295857
From 860 observations 2024 Jan. 3-2025 Feb. 26, mean residual 0".5.

・ 星図

・ 光度変化

        m1 = 9.0 + 5 logΔ + 7.0 log r

---------------------------------------------------------------------

軌道要素はM.P.E.C. 2025-D254に掲載されたものです。
星図はステラナビゲータ Ver.11 (アストロアーツ) で作成したものです。
光度グラフはComet for Windowsで作成したものです。

---------------------------------------------------------------------

Copyright(C) Seiichi Yoshida (comet@aerith.net). All rights reserved.